sat.trackr.live / text

‹ back to catalog

COSMOS 2539

NORAD 44457 · 2019-048A

PAYLOAD ACTIVE UNKNOWN

§ Identity

Operator
Country
CIS
Launch date
2019-08-05
Launch site
TYMSC
Launch vehicle
Mass (kg)
RCS (m²)

Purposes: comms

External: N2YO · Heavens-Above · Gunter

§ Orbital elements

Epoch: 2026-09-20T05:00:10.441152Z

Period
1,436.13 min
Inclination
0.0159°
Eccentricity
0.0000430
Mean motion
1.00269619 rev/d
Perigee alt
35,785.4 km
Apogee alt
35,789.0 km
Semi-major
42,165.3 km
B*
0.0000e+0
RAAN
126.8348°
Arg perigee
294.8331°
Mean anomaly
24.4810°
Rev number
2,617

§ Raw data

COSMOS 25391 44457U 19048A   26263.20845418  .00000077  00000+0  00000+0 0  99992 44457   0.0159 126.8348 0000430 294.8331  24.4810  1.00269619 26179

JSON: /api/v1/satellites/44457 · /tle

For live sub-satellite position, see the globe view (requires WebGL).

§ Visibility from observer

Set your observer location to see the next 7 days of passes ≥ 10°. The values pass through the URL so the page stays shareable.

No JS? Fill the form by hand. The geolocation button needs JavaScript.